Location: Béaulencourt
(50.0796°N, 2.8795°E)
Time: 02:25:36
(UTC+00:00)

Envisat - Visible Passes

Search period start: 13 March 2026 00:00
Search period end: 23 March 2026 00:00
Orbit: 761 x 763 km, 98.4° (Epoch: 12 March)

Date Brightness Start Highest point End Pass type
(mag) Time Alt. Az. Time Alt. Az. Time Alt. Az.
13 Mar 4.2 02:21:40 10° NNE 02:24:59 39° NE 02:24:59 39° NE visible
13 Mar 4.3 04:01:18 10° N 04:05:07 24° WNW 04:05:07 24° WNW visible
14 Mar 5.0 01:44:15 10° NNE 01:46:52 24° ENE 01:46:52 24° ENE visible
14 Mar 3.6 03:22:58 10° N 03:27:00 41° NW 03:27:00 41° NW visible
15 Mar 5.7 01:07:39 10° NE 01:08:45 13° ENE 01:08:45 13° ENE visible
15 Mar 3.5 02:44:59 10° NNE 02:48:52 53° NNE 02:48:52 53° NNE visible
15 Mar 4.6 04:25:14 10° NNW 04:28:19 16° NW 04:29:00 16° WNW visible
16 Mar 4.3 02:07:18 10° NNE 02:10:45 36° NE 02:10:45 36° NE visible
16 Mar 4.0 03:46:35 10° N 03:50:53 30° WNW 03:50:53 30° WNW visible
17 Mar 5.2 01:30:05 10° NE 01:32:37 20° ENE 01:32:37 20° ENE visible
17 Mar 3.3 03:08:24 10° N 03:12:45 53° NW 03:12:45 53° NW visible
17 Mar 5.0 04:49:49 10° NNW 04:51:16 11° NW 04:52:44 10° WNW visible
18 Mar 5.8 00:54:29 10° ENE 00:54:30 10° ENE 00:54:30 10° ENE visible
18 Mar 3.5 02:30:31 10° NNE 02:34:38 56° NE 02:34:38 56° NE visible
18 Mar 4.4 04:10:22 10° N 04:14:01 20° WNW 04:14:46 20° WNW visible
19 Mar 4.5 01:52:59 10° NNE 01:56:30 31° ENE 01:56:30 31° ENE visible
19 Mar 3.6 03:31:56 10° N 03:36:35 38° WNW 03:36:38 38° WNW visible
20 Mar 5.4 01:16:05 10° NE 01:18:23 17° ENE 01:18:23 17° ENE visible
20 Mar 3.0 02:53:52 10° NNE 02:58:31 69° NNW 02:58:31 69° NNW visible
20 Mar 4.8 04:34:27 10° NNW 04:37:03 14° NW 04:38:39 12° WNW visible
21 Mar 3.7 02:16:06 10° NNE 02:20:23 50° ENE 02:20:23 50° ENE visible
21 Mar 4.1 03:55:36 10° N 03:59:43 26° WNW 04:00:31 25° WNW visible
22 Mar 4.8 01:38:45 10° NE 01:42:15 26° ENE 01:42:15 26° ENE visible
22 Mar 3.2 03:17:20 10° N 03:22:12 48° WNW 03:22:23 48° WNW visible
